Weather History for KMDT - April, 2013

Change the Weather History Date:

Monday, April 1, 2013

  Actual Average Record
Temperature  
Mean Temperature 46 °F 47 °F  
Max Temperature 56 °F 57 °F 85 °F (1978)
Min Temperature 35 °F 38 °F 11 °F (1923)
Degree Days  
Heating Degree Days 19 18  
Month to date heating degree days 19 18  
Since 1 July heating degree days 4619 4729  
Cooling Degree Days 0 0  
Month to date cooling degree days 0 0  
Year to date cooling degree days 0 1  
Moisture  
Dew Point 31 °F    
Average Humidity 63    
Maximum Humidity 100    
Minimum Humidity 26    
Precipitation  
Precipitation T in 0.11 in 1.34 in (2004)
Month to date precipitation T 0.11  
Year to date precipitation 7.39 8.75  
Snow  
Snow 0.00 in 0.00 in 8.00 in (1924)
Month to date snowfall 0.0 0.0  
Since 1 July snowfall 17.0 30.2  
Snow Depth 0.00 in    
Sea Level Pressure  
Sea Level Pressure 29.79 in    
Wind  
Wind Speed 13 mph (NW)    
Max Wind Speed 32 mph    
Max Gust Speed 41 mph    
Visibility 6 miles    
Events Fog , Rain    
T = Trace of Precipitation, MM = Missing Value Source: NWS Daily Summary

Daily Weather History Graph

Daily Weather History Graph

Search for Another Location

Airport or City:

Trip Planner

Search our weather history database for the weather conditions in past years. The results will help you decide how hot, cold, wet, or windy it might be!

Date:

Astronomy

Apr. 01, 2013 Rise Set
Actual Time 6:50 AM EDT 7:31 PM EDT
Civil Twilight 6:23 AM EDT 7:59 PM EDT
Nautical Twilight 5:50 AM EDT 8:31 PM EDT
Astronomical Twilight 5:17 AM EDT 9:05 PM EDT
Moon 12:38 AM EDT (4/1) 10:34 AM EDT (4/1)
Length of Visible Light 13h 35m
Length of Day
12h 41m
Waning Gibbous, 67% of the Moon is Illuminated
Apr 1
Waning Gibbous
Apr 3
Last Quarter
Apr 10
New
Apr 18
First Quarter
Apr 25
Full

Hourly Weather History & Observations

Time (EDT) Temp. Windchill Dew Point Humidity Pressure Visibility Wind Dir Wind Speed Gust Speed Precip Events Conditions
12:56 AM 43.0 °F 39.5 °F 41.0 °F 93% 29.74 in 1.5 mi South 5.8 mph - N/A   Scattered Clouds
1:36 AM 42.8 °F - 41.0 °F 93% 29.74 in 1.0 mi Calm Calm - N/A   Mist
1:56 AM 43.0 °F - 41.0 °F 93% 29.75 in 5.0 mi Calm Calm - N/A   Scattered Clouds
2:56 AM 37.9 °F 31.5 °F 37.0 °F 97% 29.75 in 4.0 mi WNW 9.2 mph - N/A   Mostly Cloudy
3:56 AM 39.2 °F 31.6 °F 39.2 °F 100% 29.73 in 0.1 mi WNW 12.7 mph - N/A Fog Fog
4:56 AM 37.9 °F 33.5 °F 37.9 °F 100% 29.74 in 0.8 mi WNW 5.8 mph - N/A   Mist
5:56 AM 39.0 °F 36.8 °F 39.0 °F 100% 29.73 in 0.8 mi NW 3.5 mph - N/A   Mist
6:16 AM 39.2 °F - 37.4 °F 93% 29.72 in 1.5 mi Calm Calm - N/A   Overcast
6:36 AM 41.0 °F - 39.2 °F 93% 29.72 in 3.0 mi Calm Calm - N/A   Overcast
6:56 AM 39.0 °F - 39.0 °F 100% 29.73 in 3.0 mi Calm Calm - N/A   Overcast
7:56 AM 39.9 °F - 39.9 °F 100% 29.73 in 3.0 mi Calm Calm - N/A Fog Patches of Fog
8:56 AM 45.0 °F 43.5 °F 42.1 °F 90% 29.73 in 4.0 mi North 3.5 mph - N/A   Mostly Cloudy
9:56 AM 48.0 °F - 44.1 °F 86% 29.72 in 4.0 mi SSE 3.5 mph - N/A   Mostly Cloudy
10:56 AM 55.0 °F - 37.9 °F 53% 29.71 in 10.0 mi WNW 26.5 mph 34.5 mph N/A   Scattered Clouds
11:56 AM 53.1 °F - 37.0 °F 55% 29.74 in 10.0 mi WNW 23.0 mph - N/A   Mostly Cloudy
12:56 PM 53.1 °F - 36.0 °F 52% 29.75 in 10.0 mi WNW 15.0 mph 25.3 mph N/A   Mostly Cloudy
1:56 PM 48.2 °F - 33.8 °F 58% 29.76 in 10.0 mi NW 20.7 mph 26.5 mph N/A Rain Light Rain
2:56 PM 50.0 °F - 30.0 °F 46% 29.78 in 10.0 mi WNW 23.0 mph 29.9 mph 0.00 in   Overcast
3:56 PM 48.2 °F - 30.2 °F 50% 29.80 in 10.0 mi NW 26.5 mph 35.7 mph N/A   Mostly Cloudy
4:56 PM 48.9 °F - 26.1 °F 41% 29.82 in 10.0 mi WNW 27.6 mph 36.8 mph N/A   Scattered Clouds
5:56 PM 48.0 °F - 21.9 °F 36% 29.83 in 10.0 mi NW 16.1 mph - N/A   Scattered Clouds
6:56 PM 46.0 °F 39.3 °F 14.0 °F 28% 29.86 in 10.0 mi NW 16.1 mph - N/A   Scattered Clouds
7:56 PM 43.0 °F 35.1 °F 12.0 °F 28% 29.89 in 10.0 mi NW 17.3 mph - N/A   Partly Cloudy
8:56 PM 41.0 °F 32.5 °F 12.9 °F 32% 29.93 in 10.0 mi NW 17.3 mph - N/A   Clear
9:56 PM 39.9 °F 31.4 °F 12.0 °F 32% 29.95 in 10.0 mi NW 16.1 mph - N/A   Partly Cloudy
10:56 PM 37.9 °F 31.5 °F 10.0 °F 32% 29.97 in 10.0 mi NNW 9.2 mph - N/A   Clear
11:56 PM 37.0 °F 30.4 °F 10.9 °F 34% 29.97 in 10.0 mi NNW 9.2 mph - N/A   Clear